Weather History for KSET - December, 2013

Change the Weather History Date:

Tuesday, December 3, 2013

  Actual Average (KSTL) Record (KSTL)
Temperature  
Mean Temperature 48 °F 39 °F  
Max Temperature 59 °F 47 °F 76 °F (1970)
Min Temperature 37 °F 31 °F 2 °F (1886)
Degree Days  
Heating Degree Days 17 26  
Month to date heating degree days 78  
Since 1 July heating degree days 904  
Cooling Degree Days 0 0  
Month to date cooling degree days 0  
Year to date cooling degree days 1646  
Moisture  
Dew Point 44 °F    
Average Humidity 93    
Maximum Humidity 100    
Minimum Humidity 69    
Precipitation  
Precipitation 0.00 in 0.11 in 2.73 in (1982)
Month to date precipitation 0.32  
Year to date precipitation 38.44  
Snow  
Snow 0.00 in 0.10 in 2.30 in (1921)
Month to date snowfall 0.3  
Since 1 July snowfall 1.0  
Snow Depth -    
Sea Level Pressure  
Sea Level Pressure 29.67 in    
Wind  
Wind Speed 7 mph (ESE)    
Max Wind Speed 14 mph    
Max Gust Speed -    
Visibility 4 miles    
Events Fog    
T = Trace of Precipitation, MM = Missing Value Source: NWS Daily Summary

Daily Weather History Graph

Daily Weather History Graph

Search for Another Location

Airport or City:

Trip Planner

Search our weather history database for the weather conditions in past years. The results will help you decide how hot, cold, wet, or windy it might be!

Date:

Astronomy

Dec. 03, 2013 Rise Set
Actual Time 7:03 AM CST 4:39 PM CST
Civil Twilight 6:34 AM CST 5:09 PM CST
Nautical Twilight 6:00 AM CST 5:42 PM CST
Astronomical Twilight 5:28 AM CST 6:14 PM CST
Moon 7:33 AM CST (12/3) 5:43 PM CST (12/3)
Length of Visible Light 10h 35m
Length of Day
9h 36m
New Moon, 1% of the Moon is Illuminated
Dec 3
New Moon
Dec 9
First Quarter
Dec 17
Full
Dec 25
Last Quarter
Jan 1
New

Hourly Weather History & Observations

Time (CST) Temp. Windchill Dew Point Humidity Pressure Visibility Wind Dir Wind Speed Gust Speed Precip Events Conditions
12:54 AM 37.0 °F 32.4 °F 37.0 °F 100% 29.68 in 0.2 mi East 5.8 mph - N/A Fog Fog
1:03 AM 37.0 °F 33.3 °F 36.0 °F 96% 29.68 in 0.2 mi ENE 4.6 mph - N/A Fog Fog
1:28 AM 37.9 °F 33.5 °F 37.9 °F 100% 29.68 in 1.2 mi ENE 5.8 mph - N/A   Partly Cloudy
1:54 AM 39.9 °F 35.1 °F 39.9 °F 100% 29.68 in 1.5 mi East 6.9 mph - N/A   Clear
2:03 AM 39.9 °F 35.1 °F 39.9 °F 100% 29.68 in 0.5 mi East 6.9 mph - N/A Fog Fog
2:11 AM 39.9 °F 35.1 °F 39.9 °F 100% 29.68 in 0.2 mi East 6.9 mph - N/A Fog Fog
2:49 AM 41.0 °F 35.2 °F 41.0 °F 100% 29.66 in 0.2 mi East 9.2 mph - N/A Fog Fog
2:54 AM 41.0 °F 35.2 °F 41.0 °F 100% 29.66 in 0.2 mi East 9.2 mph - N/A Fog Fog
3:54 AM 39.0 °F 32.8 °F 39.0 °F 100% 29.65 in 0.2 mi East 9.2 mph - N/A Fog Fog
4:51 AM 39.2 °F 35.0 °F 39.2 °F 100% 29.65 in 0.2 mi ENE 5.8 mph - N/A Fog Fog
4:54 AM 39.9 °F 35.8 °F 39.9 °F 100% 29.65 in 0.2 mi East 5.8 mph - N/A Fog Fog
5:54 AM 43.0 °F 40.3 °F 43.0 °F 100% 29.68 in 0.5 mi NE 4.6 mph - N/A Fog Fog
6:05 AM 45.0 °F 43.5 °F 44.1 °F 97% 29.68 in 1.2 mi Variable 3.5 mph - N/A   Overcast
6:16 AM 45.0 °F - 45.0 °F 100% 29.68 in 1.5 mi Calm Calm - N/A   Overcast
6:28 AM 46.0 °F 44.8 °F 46.0 °F 100% 29.69 in 1.8 mi SSE 3.5 mph - N/A   Overcast
6:54 AM 45.0 °F 42.6 °F 45.0 °F 100% 29.70 in 1.5 mi ESE 4.6 mph - N/A   Overcast
7:18 AM 45.0 °F 41.8 °F 45.0 °F 100% 29.70 in 1.5 mi East 5.8 mph - N/A   Overcast
7:28 AM 45.0 °F 41.2 °F 45.0 °F 100% 29.69 in 0.8 mi ESE 6.9 mph - N/A   Overcast
7:41 AM 46.0 °F 42.5 °F 46.0 °F 100% 29.69 in 1.0 mi ESE 6.9 mph - N/A   Overcast
7:54 AM 46.0 °F 43.1 °F 46.0 °F 100% 29.69 in 1.0 mi East 5.8 mph - N/A   Overcast
8:41 AM 48.0 °F - 48.0 °F 100% 29.69 in 2.0 mi ESE 5.8 mph - N/A   Overcast
8:54 AM 48.9 °F - 48.0 °F 97% 29.70 in 2.5 mi SE 6.9 mph - N/A   Overcast
9:03 AM 50.0 °F - 48.0 °F 93% 29.70 in 3.0 mi South 6.9 mph - N/A   Overcast
9:54 AM 52.0 °F - 50.0 °F 93% 29.70 in 5.0 mi South 9.2 mph - N/A   Overcast
10:09 AM 53.1 °F - 48.9 °F 86% 29.69 in 6.0 mi South 10.4 mph - N/A   Overcast
10:54 AM 55.0 °F - 50.0 °F 83% 29.68 in 8.0 mi South 12.7 mph - N/A   Overcast
11:54 AM 55.9 °F - 50.0 °F 80% 29.68 in 7.0 mi South 8.1 mph - N/A   Overcast
12:54 PM 57.0 °F - 50.0 °F 77% 29.65 in 7.0 mi SSE 11.5 mph - N/A   Overcast
1:13 PM 57.0 °F - 50.0 °F 77% 29.65 in 8.0 mi South 12.7 mph - N/A   Mostly Cloudy
1:40 PM 57.9 °F - 50.0 °F 75% 29.65 in 10.0 mi South 11.5 mph - N/A   Scattered Clouds
1:54 PM 59.0 °F - 50.0 °F 72% 29.64 in 10.0 mi SSE 12.7 mph - N/A   Scattered Clouds
2:06 PM 59.0 °F - 50.0 °F 72% 29.64 in 10.0 mi SSE 11.5 mph - N/A   Mostly Cloudy
2:54 PM 59.0 °F - 50.0 °F 72% 29.63 in 10.0 mi South 11.5 mph - N/A   Mostly Cloudy
3:15 PM 59.0 °F - 48.9 °F 69% 29.62 in 10.0 mi SSE 12.7 mph - N/A   Scattered Clouds
3:54 PM 57.9 °F - 50.0 °F 75% 29.62 in 9.0 mi SSE 13.8 mph - N/A   Clear
4:54 PM 54.0 °F - 48.0 °F 80% 29.62 in 9.0 mi SSE 11.5 mph - N/A   Clear
5:54 PM 52.0 °F - 46.9 °F 83% 29.65 in 9.0 mi SSE 8.1 mph - N/A   Clear
6:54 PM 51.1 °F - 46.0 °F 83% 29.67 in 9.0 mi SSE 6.9 mph - N/A   Clear
7:54 PM 46.9 °F - 46.0 °F 97% 29.68 in 6.0 mi SE 4.6 mph - N/A   Clear
8:54 PM 42.1 °F 37.7 °F 41.0 °F 96% 29.68 in 4.0 mi SE 6.9 mph - N/A   Partly Cloudy
9:20 PM 42.1 °F 37.7 °F 42.1 °F 100% 29.68 in 2.0 mi East 6.9 mph - N/A   Partly Cloudy
9:54 PM 42.1 °F 37.7 °F 42.1 °F 100% 29.68 in 2.5 mi East 6.9 mph - N/A   Clear
10:08 PM 43.0 °F 38.8 °F 42.1 °F 97% 29.67 in 1.2 mi East 6.9 mph - N/A   Clear
10:12 PM 43.0 °F 38.8 °F 43.0 °F 100% 29.67 in 0.8 mi East 6.9 mph - N/A   Mist
10:54 PM 41.0 °F 35.8 °F 39.9 °F 96% 29.67 in 0.2 mi East 8.1 mph - N/A Fog Fog
11:17 PM 39.9 °F 35.1 °F 39.9 °F 100% 29.66 in 0.2 mi East 6.9 mph - N/A Fog Fog
11:24 PM 39.9 °F 35.8 °F 39.9 °F 100% 29.67 in 0.2 mi East 5.8 mph - N/A Fog Fog
11:54 PM 42.1 °F 36.6 °F 41.0 °F 96% 29.69 in 0.2 mi East 9.2 mph - N/A Fog Fog